Location: Camaret
(48.2753°N, 4.5961°W)
Time: 00:46:32
(UTC+00:00)

USA 308 - Pass Details

Date: 29 October 2020
Orbit: 571 x 578 km, 54.0° (Epoch: 23 November)

Event Time Altitude Azimuth Distance (km) Brightness Sun altitude
Rises 18:42:46 0° 298° (WNW) 2,788 7.5 -17.0°
Reaches altitude 10° 18:45:02 10° 297° (WNW) 1,885 6.5 -17.4°
Maximum altitude 18:49:18 71° 213° (SSW) 609 3.0 -18.1°
Enters shadow 18:51:17 31° 136° (SE) 1,026 3.8 -18.4°
